Year,Month,Day,Hour,Minute,Value (Times are PST for insolation in W/m^2)
2005,09,05,00,00,0.00
2005,09,05,00,01,0.00
2005,09,05,00,02,0.00
2005,09,05,00,03,0.00
2005,09,05,00,04,0.00
2005,09,05,00,05,0.00
2005,09,05,00,06,0.00
2005,09,05,00,07,0.00
2005,09,05,00,08,0.00
2005,09,05,00,09,0.00
2005,09,05,00,10,0.00
2005,09,05,00,11,0.00
2005,09,05,00,12,0.00
2005,09,05,00,13,0.00
2005,09,05,00,14,0.00
2005,09,05,00,15,0.00
2005,09,05,00,16,0.00
2005,09,05,00,17,0.00
2005,09,05,00,18,0.00
2005,09,05,00,19,0.00
2005,09,05,00,20,0.00
2005,09,05,00,21,0.00
2005,09,05,00,22,0.00
2005,09,05,00,23,0.00
2005,09,05,00,24,0.00
2005,09,05,00,25,0.00
2005,09,05,00,26,0.00
2005,09,05,00,27,0.00
2005,09,05,00,28,0.00
2005,09,05,00,29,0.00
2005,09,05,00,30,0.00
2005,09,05,00,31,0.00
2005,09,05,00,32,0.00
2005,09,05,00,33,0.00
2005,09,05,00,34,0.00
2005,09,05,00,35,0.00
2005,09,05,00,36,0.00
2005,09,05,00,37,0.00
2005,09,05,00,38,0.00
2005,09,05,00,39,0.00
2005,09,05,00,40,0.00
2005,09,05,00,41,0.00
2005,09,05,00,42,0.00
2005,09,05,00,43,0.00
2005,09,05,00,44,0.00
2005,09,05,00,45,0.00
2005,09,05,00,46,0.00
2005,09,05,00,47,0.00
2005,09,05,00,48,0.00
2005,09,05,00,49,0.00
2005,09,05,00,50,0.00
2005,09,05,00,51,0.00
2005,09,05,00,52,0.00
2005,09,05,00,53,0.00
2005,09,05,00,54,0.00
2005,09,05,00,55,0.00
2005,09,05,00,56,0.00
2005,09,05,00,57,0.00
2005,09,05,00,58,0.00
2005,09,05,00,59,0.00
2005,09,05,01,00,0.00
2005,09,05,01,01,0.00
2005,09,05,01,02,0.00
2005,09,05,01,03,0.00
2005,09,05,01,04,0.00
2005,09,05,01,05,0.00
2005,09,05,01,06,0.00
2005,09,05,01,07,0.00
2005,09,05,01,08,0.00
2005,09,05,01,09,0.00
2005,09,05,01,10,0.00
2005,09,05,01,11,0.00
2005,09,05,01,12,0.00
2005,09,05,01,13,0.00
2005,09,05,01,14,0.00
2005,09,05,01,15,0.00
2005,09,05,01,16,0.00
2005,09,05,01,17,0.00
2005,09,05,01,18,0.00
2005,09,05,01,19,0.00
2005,09,05,01,20,0.00
2005,09,05,01,21,0.00
2005,09,05,01,22,0.00
2005,09,05,01,23,0.00
2005,09,05,01,24,0.00
2005,09,05,01,25,0.00
2005,09,05,01,26,0.00
2005,09,05,01,27,0.00
2005,09,05,01,28,0.00
2005,09,05,01,29,0.00
2005,09,05,01,30,0.00
2005,09,05,01,31,0.00
2005,09,05,01,32,0.00
2005,09,05,01,33,0.00
2005,09,05,01,34,0.00
2005,09,05,01,35,0.00
2005,09,05,01,36,0.00
2005,09,05,01,37,0.00
2005,09,05,01,38,0.00
2005,09,05,01,39,0.00
2005,09,05,01,40,0.00
2005,09,05,01,41,0.00
2005,09,05,01,42,0.00
2005,09,05,01,43,0.00
2005,09,05,01,44,0.00
2005,09,05,01,45,0.00
2005,09,05,01,46,0.00
2005,09,05,01,47,0.00
2005,09,05,01,48,0.00
2005,09,05,01,49,0.00
2005,09,05,01,50,0.00
2005,09,05,01,51,0.00
2005,09,05,01,52,0.00
2005,09,05,01,53,0.00
2005,09,05,01,54,0.00
2005,09,05,01,55,0.00
2005,09,05,01,56,0.00
2005,09,05,01,57,0.00
2005,09,05,01,58,0.00
2005,09,05,01,59,0.00
2005,09,05,02,00,0.00
2005,09,05,02,01,0.00
2005,09,05,02,02,0.00
2005,09,05,02,03,0.00
2005,09,05,02,04,0.00
2005,09,05,02,05,0.00
2005,09,05,02,06,0.00
2005,09,05,02,07,0.00
2005,09,05,02,08,0.00
2005,09,05,02,09,0.00
2005,09,05,02,10,0.00
2005,09,05,02,11,0.00
2005,09,05,02,12,0.00
2005,09,05,02,13,0.00
2005,09,05,02,14,0.00
2005,09,05,02,15,0.00
2005,09,05,02,16,0.00
2005,09,05,02,17,0.00
2005,09,05,02,18,0.00
2005,09,05,02,19,0.00
2005,09,05,02,20,0.00
2005,09,05,02,21,0.00
2005,09,05,02,22,0.00
2005,09,05,02,23,0.00
2005,09,05,02,24,0.00
2005,09,05,02,25,0.00
2005,09,05,02,26,0.00
2005,09,05,02,27,0.00
2005,09,05,02,28,0.00
2005,09,05,02,29,0.00
2005,09,05,02,30,0.00
2005,09,05,02,31,0.00
2005,09,05,02,32,0.00
2005,09,05,02,33,0.00
2005,09,05,02,34,0.00
2005,09,05,02,35,0.00
2005,09,05,02,36,0.00
2005,09,05,02,37,0.00
2005,09,05,02,38,0.00
2005,09,05,02,39,0.00
2005,09,05,02,40,0.00
2005,09,05,02,41,0.00
2005,09,05,02,42,0.00
2005,09,05,02,43,0.00
2005,09,05,02,44,0.00
2005,09,05,02,45,0.00
2005,09,05,02,46,0.00
2005,09,05,02,47,0.00
2005,09,05,02,48,0.00
2005,09,05,02,49,0.00
2005,09,05,02,50,0.00
2005,09,05,02,51,0.00
2005,09,05,02,52,0.00
2005,09,05,02,53,0.00
2005,09,05,02,54,0.00
2005,09,05,02,55,0.00
2005,09,05,02,56,0.00
2005,09,05,02,57,0.00
2005,09,05,02,58,0.00
2005,09,05,02,59,0.00
2005,09,05,03,00,0.00
2005,09,05,03,01,0.00
2005,09,05,03,02,0.00
2005,09,05,03,03,0.00
2005,09,05,03,04,0.00
2005,09,05,03,05,0.00
2005,09,05,03,06,0.00
2005,09,05,03,07,0.00
2005,09,05,03,08,0.00
2005,09,05,03,09,0.00
2005,09,05,03,10,0.00
2005,09,05,03,11,0.00
2005,09,05,03,12,0.00
2005,09,05,03,13,0.00
2005,09,05,03,14,0.00
2005,09,05,03,15,0.00
2005,09,05,03,16,0.00
2005,09,05,03,17,0.00
2005,09,05,03,18,0.00
2005,09,05,03,19,0.00
2005,09,05,03,20,0.00
2005,09,05,03,21,0.00
2005,09,05,03,22,0.00
2005,09,05,03,23,0.00
2005,09,05,03,24,0.00
2005,09,05,03,25,0.00
2005,09,05,03,26,0.00
2005,09,05,03,27,0.00
2005,09,05,03,28,0.00
2005,09,05,03,29,0.00
2005,09,05,03,30,0.00
2005,09,05,03,31,0.00
2005,09,05,03,32,0.00
2005,09,05,03,33,0.00
2005,09,05,03,34,0.00
2005,09,05,03,35,0.00
2005,09,05,03,36,0.00
2005,09,05,03,37,0.00
2005,09,05,03,38,0.00
2005,09,05,03,39,0.00
2005,09,05,03,40,0.00
2005,09,05,03,41,0.00
2005,09,05,03,42,0.00
2005,09,05,03,43,0.00
2005,09,05,03,44,0.00
2005,09,05,03,45,0.00
2005,09,05,03,46,0.00
2005,09,05,03,47,0.00
2005,09,05,03,48,0.00
2005,09,05,03,49,0.00
2005,09,05,03,50,0.00
2005,09,05,03,51,0.00
2005,09,05,03,52,0.00
2005,09,05,03,53,0.00
2005,09,05,03,54,0.00
2005,09,05,03,55,0.00
2005,09,05,03,56,0.00
2005,09,05,03,57,0.00
2005,09,05,03,58,0.00
2005,09,05,03,59,0.00
2005,09,05,04,00,0.00
2005,09,05,04,01,0.00
2005,09,05,04,02,0.00
2005,09,05,04,03,0.00
2005,09,05,04,04,0.00
2005,09,05,04,05,0.00
2005,09,05,04,06,0.00
2005,09,05,04,07,0.00
2005,09,05,04,08,0.00
2005,09,05,04,09,0.00
2005,09,05,04,10,0.00
2005,09,05,04,11,0.00
2005,09,05,04,12,0.00
2005,09,05,04,13,0.00
2005,09,05,04,14,0.00
2005,09,05,04,15,0.00
2005,09,05,04,16,0.00
2005,09,05,04,17,0.00
2005,09,05,04,18,0.00
2005,09,05,04,19,0.00
2005,09,05,04,20,0.00
2005,09,05,04,21,0.00
2005,09,05,04,22,0.00
2005,09,05,04,23,0.00
2005,09,05,04,24,0.00
2005,09,05,04,25,0.00
2005,09,05,04,26,0.00
2005,09,05,04,27,0.00
2005,09,05,04,28,0.00
2005,09,05,04,29,0.00
2005,09,05,04,30,0.00
2005,09,05,04,31,0.00
2005,09,05,04,32,0.00
2005,09,05,04,33,0.00
2005,09,05,04,34,0.00
2005,09,05,04,35,0.00
2005,09,05,04,36,0.00
2005,09,05,04,37,0.00
2005,09,05,04,38,0.00
2005,09,05,04,39,0.00
2005,09,05,04,40,0.00
2005,09,05,04,41,0.00
2005,09,05,04,42,0.00
2005,09,05,04,43,0.00
2005,09,05,04,44,0.00
2005,09,05,04,45,0.00
2005,09,05,04,46,0.00
2005,09,05,04,47,0.00
2005,09,05,04,48,0.00
2005,09,05,04,49,0.00
2005,09,05,04,50,0.00
2005,09,05,04,51,0.00
2005,09,05,04,52,0.00
2005,09,05,04,53,0.00
2005,09,05,04,54,0.00
2005,09,05,04,55,0.00
2005,09,05,04,56,0.00
2005,09,05,04,57,0.00
2005,09,05,04,58,0.00
2005,09,05,04,59,0.00
2005,09,05,05,00,0.00
2005,09,05,05,01,0.00
2005,09,05,05,02,0.00
2005,09,05,05,03,0.00
2005,09,05,05,04,0.00
2005,09,05,05,05,0.00
2005,09,05,05,06,0.00
2005,09,05,05,07,0.00
2005,09,05,05,08,0.00
2005,09,05,05,09,0.00
2005,09,05,05,10,0.00
2005,09,05,05,11,0.00
2005,09,05,05,12,0.00
2005,09,05,05,13,0.00
2005,09,05,05,14,0.00
2005,09,05,05,15,0.00
2005,09,05,05,16,0.00
2005,09,05,05,17,0.00
2005,09,05,05,18,0.00
2005,09,05,05,19,0.00
2005,09,05,05,20,0.00
2005,09,05,05,21,0.00
2005,09,05,05,22,0.00
2005,09,05,05,23,0.00
2005,09,05,05,24,0.00
2005,09,05,05,25,0.00
2005,09,05,05,26,0.00
2005,09,05,05,27,0.00
2005,09,05,05,28,0.00
2005,09,05,05,29,0.00
2005,09,05,05,30,0.00
2005,09,05,05,31,0.00
2005,09,05,05,32,0.00
2005,09,05,05,33,0.00
2005,09,05,05,34,0.00
2005,09,05,05,35,0.00
2005,09,05,05,36,0.00
2005,09,05,05,37,0.00
2005,09,05,05,38,0.00
2005,09,05,05,39,0.00
2005,09,05,05,40,0.00
2005,09,05,05,41,0.00
2005,09,05,05,42,0.00
2005,09,05,05,43,0.00
2005,09,05,05,44,0.00
2005,09,05,05,45,0.00
2005,09,05,05,46,0.00
2005,09,05,05,47,0.00
2005,09,05,05,48,0.00
2005,09,05,05,49,0.00
2005,09,05,05,50,0.00
2005,09,05,05,51,0.00
2005,09,05,05,52,0.00
2005,09,05,05,53,0.00
2005,09,05,05,54,0.00
2005,09,05,05,55,0.00
2005,09,05,05,56,0.00
2005,09,05,05,57,0.00
2005,09,05,05,58,0.00
2005,09,05,05,59,0.00
2005,09,05,06,00,0.00
2005,09,05,06,01,0.00
2005,09,05,06,02,0.00
2005,09,05,06,03,0.00
2005,09,05,06,04,0.00
2005,09,05,06,05,0.00
2005,09,05,06,06,0.00
2005,09,05,06,07,0.00
2005,09,05,06,08,0.00
2005,09,05,06,09,0.00
2005,09,05,06,10,0.00
2005,09,05,06,11,0.00
2005,09,05,06,12,0.00
2005,09,05,06,13,0.00
2005,09,05,06,14,0.00
2005,09,05,06,15,0.00
2005,09,05,06,16,0.00
2005,09,05,06,17,0.00
2005,09,05,06,18,0.00
2005,09,05,06,19,0.00
2005,09,05,06,20,0.00
2005,09,05,06,21,0.00
2005,09,05,06,22,0.00
2005,09,05,06,23,0.00
2005,09,05,06,24,0.00
2005,09,05,06,25,0.00
2005,09,05,06,26,0.00
2005,09,05,06,27,3.90
2005,09,05,06,28,5.00
2005,09,05,06,29,5.00
2005,09,05,06,30,5.00
2005,09,05,06,31,5.00
2005,09,05,06,32,6.30
2005,09,05,06,33,7.00
2005,09,05,06,34,7.00
2005,09,05,06,35,7.00
2005,09,05,06,36,7.00
2005,09,05,06,37,7.00
2005,09,05,06,38,7.00
2005,09,05,06,39,7.00
2005,09,05,06,40,7.00
2005,09,05,06,41,7.00
2005,09,05,06,42,7.70
2005,09,05,06,43,9.00
2005,09,05,06,44,9.00
2005,09,05,06,45,10.70
2005,09,05,06,46,11.00
2005,09,05,06,47,11.20
2005,09,05,06,48,12.00
2005,09,05,06,49,12.00
2005,09,05,06,50,13.50
2005,09,05,06,51,14.00
2005,09,05,06,52,14.00
2005,09,05,06,53,14.00
2005,09,05,06,54,14.00
2005,09,05,06,55,14.00
2005,09,05,06,56,15.30
2005,09,05,06,57,16.00
2005,09,05,06,58,16.00
2005,09,05,06,59,16.60
2005,09,05,07,00,18.00
2005,09,05,07,01,18.00
2005,09,05,07,02,18.70
2005,09,05,07,03,19.10
2005,09,05,07,04,21.00
2005,09,05,07,05,21.60
2005,09,05,07,06,23.90
2005,09,05,07,07,25.60
2005,09,05,07,08,27.60
2005,09,05,07,09,28.00
2005,09,05,07,10,28.40
2005,09,05,07,11,30.70
2005,09,05,07,12,32.50
2005,09,05,07,13,33.00
2005,09,05,07,14,33.00
2005,09,05,07,15,33.00
2005,09,05,07,16,35.40
2005,09,05,07,17,44.00
2005,09,05,07,18,44.00
2005,09,05,07,19,44.00
2005,09,05,07,20,44.00
2005,09,05,07,21,50.30
2005,09,05,07,22,45.90
2005,09,05,07,23,40.00
2005,09,05,07,24,36.00
2005,09,05,07,25,35.00
2005,09,05,07,26,36.60
2005,09,05,07,27,35.10
2005,09,05,07,28,34.40
2005,09,05,07,29,33.00
2005,09,05,07,30,34.10
2005,09,05,07,31,37.80
2005,09,05,07,32,41.60
2005,09,05,07,33,40.10
2005,09,05,07,34,40.00
2005,09,05,07,35,40.00
2005,09,05,07,36,40.00
2005,09,05,07,37,40.00
2005,09,05,07,38,43.50
2005,09,05,07,39,44.00
2005,09,05,07,40,44.70
2005,09,05,07,41,46.00
2005,09,05,07,42,47.90
2005,09,05,07,43,50.50
2005,09,05,07,44,55.50
2005,09,05,07,45,58.80
2005,09,05,07,46,74.40
2005,09,05,07,47,82.50
2005,09,05,07,48,89.20
2005,09,05,07,49,91.00
2005,09,05,07,50,93.00
2005,09,05,07,51,94.60
2005,09,05,07,52,93.00
2005,09,05,07,53,93.00
2005,09,05,07,54,91.80
2005,09,05,07,55,91.00
2005,09,05,07,56,90.10
2005,09,05,07,57,90.60
2005,09,05,07,58,93.00
2005,09,05,07,59,95.50
2005,09,05,08,00,99.30
2005,09,05,08,01,103.10
2005,09,05,08,02,104.00
2005,09,05,08,03,104.00
2005,09,05,08,04,98.90
2005,09,05,08,05,91.00
2005,09,05,08,06,89.00
2005,09,05,08,07,84.70
2005,09,05,08,08,85.70
2005,09,05,08,09,83.20
2005,09,05,08,10,79.40
2005,09,05,08,11,77.00
2005,09,05,08,12,78.40
2005,09,05,08,13,83.10
2005,09,05,08,14,105.90
2005,09,05,08,15,127.70
2005,09,05,08,16,136.70
2005,09,05,08,17,135.00
2005,09,05,08,18,126.80
2005,09,05,08,19,125.00
2005,09,05,08,20,127.50
2005,09,05,08,21,144.00
2005,09,05,08,22,144.00
2005,09,05,08,23,144.00
2005,09,05,08,24,159.30
2005,09,05,08,25,156.30
2005,09,05,08,26,124.10
2005,09,05,08,27,147.50
2005,09,05,08,28,167.00
2005,09,05,08,29,212.00
2005,09,05,08,30,206.50
2005,09,05,08,31,179.40
2005,09,05,08,32,153.60
2005,09,05,08,33,136.80
2005,09,05,08,34,120.80
2005,09,05,08,35,108.70
2005,09,05,08,36,104.20
2005,09,05,08,37,107.20
2005,09,05,08,38,121.70
2005,09,05,08,39,147.50
2005,09,05,08,40,171.00
2005,09,05,08,41,171.00
2005,09,05,08,42,171.00
2005,09,05,08,43,171.50
2005,09,05,08,44,175.00
2005,09,05,08,45,172.00
2005,09,05,08,46,172.00
2005,09,05,08,47,172.00
2005,09,05,08,48,156.30
2005,09,05,08,49,148.00
2005,09,05,08,50,146.00
2005,09,05,08,51,146.70
2005,09,05,08,52,149.60
2005,09,05,08,53,152.40
2005,09,05,08,54,154.60
2005,09,05,08,55,155.40
2005,09,05,08,56,160.50
2005,09,05,08,57,186.60
2005,09,05,08,58,241.20
2005,09,05,08,59,249.70
2005,09,05,09,00,206.00
2005,09,05,09,01,184.20
2005,09,05,09,02,179.00
2005,09,05,09,03,179.00
2005,09,05,09,04,179.00
2005,09,05,09,05,176.80
2005,09,05,09,06,176.10
2005,09,05,09,07,178.50
2005,09,05,09,08,181.00
2005,09,05,09,09,170.00
2005,09,05,09,10,156.20
2005,09,05,09,11,152.00
2005,09,05,09,12,151.00
2005,09,05,09,13,151.50
2005,09,05,09,14,153.60
2005,09,05,09,15,155.50
2005,09,05,09,16,158.40
2005,09,05,09,17,162.30
2005,09,05,09,18,172.00
2005,09,05,09,19,184.60
2005,09,05,09,20,197.00
2005,09,05,09,21,200.50
2005,09,05,09,22,207.20
2005,09,05,09,23,209.00
2005,09,05,09,24,209.50
2005,09,05,09,25,214.00
2005,09,05,09,26,209.80
2005,09,05,09,27,195.70
2005,09,05,09,28,180.90
2005,09,05,09,29,176.00
2005,09,05,09,30,176.00
2005,09,05,09,31,175.10
2005,09,05,09,32,175.50
2005,09,05,09,33,181.00
2005,09,05,09,34,181.00
2005,09,05,09,35,184.40
2005,09,05,09,36,183.40
2005,09,05,09,37,187.00
2005,09,05,09,38,190.90
2005,09,05,09,39,192.60
2005,09,05,09,40,193.00
2005,09,05,09,41,193.00
2005,09,05,09,42,193.70
2005,09,05,09,43,196.40
2005,09,05,09,44,193.70
2005,09,05,09,45,192.60
2005,09,05,09,46,193.00
2005,09,05,09,47,194.20
2005,09,05,09,48,221.40
2005,09,05,09,49,223.00
2005,09,05,09,50,223.00
2005,09,05,09,51,225.50
2005,09,05,09,52,227.00
2005,09,05,09,53,209.10
2005,09,05,09,54,214.60
2005,09,05,09,55,227.00
2005,09,05,09,56,247.10
2005,09,05,09,57,272.00
2005,09,05,09,58,289.70
2005,09,05,09,59,308.00
2005,09,05,10,00,341.00
2005,09,05,10,01,341.00
2005,09,05,10,02,341.00
2005,09,05,10,03,366.50
2005,09,05,10,04,381.00
2005,09,05,10,05,363.30
2005,09,05,10,06,324.40
2005,09,05,10,07,308.00
2005,09,05,10,08,313.00
2005,09,05,10,09,318.00
2005,09,05,10,10,325.30
2005,09,05,10,11,309.80
2005,09,05,10,12,297.00
2005,09,05,10,13,297.00
2005,09,05,10,14,297.00
2005,09,05,10,15,289.70
2005,09,05,10,16,292.80
2005,09,05,10,17,296.50
2005,09,05,10,18,320.10
2005,09,05,10,19,339.00
2005,09,05,10,20,339.00
2005,09,05,10,21,383.70
2005,09,05,10,22,365.40
2005,09,05,10,23,270.20
2005,09,05,10,24,234.00
2005,09,05,10,25,187.70
2005,09,05,10,26,160.80
2005,09,05,10,27,147.00
2005,09,05,10,28,143.60
2005,09,05,10,29,135.00
2005,09,05,10,30,135.00
2005,09,05,10,31,141.20
2005,09,05,10,32,148.00
2005,09,05,10,33,131.00
2005,09,05,10,34,123.30
2005,09,05,10,35,127.60
2005,09,05,10,36,130.00
2005,09,05,10,37,141.90
2005,09,05,10,38,171.20
2005,09,05,10,39,201.50
2005,09,05,10,40,219.20
2005,09,05,10,41,230.00
2005,09,05,10,42,248.00
2005,09,05,10,43,248.00
2005,09,05,10,44,248.00
2005,09,05,10,45,248.00
2005,09,05,10,46,186.30
2005,09,05,10,47,188.00
2005,09,05,10,48,188.00
2005,09,05,10,49,243.30
2005,09,05,10,50,294.00
2005,09,05,10,51,294.00
2005,09,05,10,52,350.60
2005,09,05,10,53,886.50
2005,09,05,10,54,881.00
2005,09,05,10,55,881.00
2005,09,05,10,56,881.00
2005,09,05,10,57,881.00
2005,09,05,10,58,881.00
2005,09,05,10,59,683.80
2005,09,05,11,00,125.00
2005,09,05,11,01,123.90
2005,09,05,11,02,134.30
2005,09,05,11,03,158.90
2005,09,05,11,04,207.00
2005,09,05,11,05,207.00
2005,09,05,11,06,207.00
2005,09,05,11,07,207.00
2005,09,05,11,08,207.00
2005,09,05,11,09,342.00
2005,09,05,11,10,270.30
2005,09,05,11,11,308.50
2005,09,05,11,12,344.30
2005,09,05,11,13,323.00
2005,09,05,11,14,323.00
2005,09,05,11,15,330.40
2005,09,05,11,16,485.00
2005,09,05,11,17,485.00
2005,09,05,11,18,485.00
2005,09,05,11,19,628.10
2005,09,05,11,20,714.00
2005,09,05,11,21,720.40
2005,09,05,11,22,720.10
2005,09,05,11,23,715.90
2005,09,05,11,24,714.50
2005,09,05,11,25,715.00
2005,09,05,11,26,718.20
2005,09,05,11,27,724.80
2005,09,05,11,28,735.80
2005,09,05,11,29,738.00
2005,09,05,11,30,738.00
2005,09,05,11,31,738.00
2005,09,05,11,32,728.10
2005,09,05,11,33,726.20
2005,09,05,11,34,728.00
2005,09,05,11,35,728.40
2005,09,05,11,36,733.60
2005,09,05,11,37,739.10
2005,09,05,11,38,743.30
2005,09,05,11,39,746.60
2005,09,05,11,40,744.00
2005,09,05,11,41,744.00
2005,09,05,11,42,744.60
2005,09,05,11,43,744.30
2005,09,05,11,44,744.00
2005,09,05,11,45,757.30
2005,09,05,11,46,763.50
2005,09,05,11,47,753.50
2005,09,05,11,48,744.20
2005,09,05,11,49,743.50
2005,09,05,11,50,738.80
2005,09,05,11,51,741.30
2005,09,05,11,52,737.70
2005,09,05,11,53,736.10
2005,09,05,11,54,736.80
2005,09,05,11,55,739.60
2005,09,05,11,56,740.10
2005,09,05,11,57,742.00
2005,09,05,11,58,743.00
2005,09,05,11,59,743.60
2005,09,05,12,00,740.80
2005,09,05,12,01,740.00
2005,09,05,12,02,740.00
2005,09,05,12,03,740.90
2005,09,05,12,04,744.00
2005,09,05,12,05,744.00
2005,09,05,12,06,744.70
2005,09,05,12,07,745.00
2005,09,05,12,08,744.30
2005,09,05,12,09,747.00
2005,09,05,12,10,747.00
2005,09,05,12,11,747.00
2005,09,05,12,12,749.80
2005,09,05,12,13,751.00
2005,09,05,12,14,751.00
2005,09,05,12,15,751.30
2005,09,05,12,16,752.00
2005,09,05,12,17,751.40
2005,09,05,12,18,749.50
2005,09,05,12,19,751.50
2005,09,05,12,20,755.60
2005,09,05,12,21,754.60
2005,09,05,12,22,756.90
2005,09,05,12,23,762.50
2005,09,05,12,24,766.00
2005,09,05,12,25,766.00
2005,09,05,12,26,760.70
2005,09,05,12,27,758.70
2005,09,05,12,28,759.40
2005,09,05,12,29,759.20
2005,09,05,12,30,761.60
2005,09,05,12,31,763.10
2005,09,05,12,32,765.80
2005,09,05,12,33,764.40
2005,09,05,12,34,765.40
2005,09,05,12,35,765.00
2005,09,05,12,36,764.50
2005,09,05,12,37,759.80
2005,09,05,12,38,762.60
2005,09,05,12,39,765.40
2005,09,05,12,40,773.00
2005,09,05,12,41,773.00
2005,09,05,12,42,773.00
2005,09,05,12,43,766.30
2005,09,05,12,44,699.50
2005,09,05,12,45,712.00
2005,09,05,12,46,712.00
2005,09,05,12,47,368.30
2005,09,05,12,48,185.00
2005,09,05,12,49,210.30
2005,09,05,12,50,476.00
2005,09,05,12,51,539.20
2005,09,05,12,52,684.00
2005,09,05,12,53,745.00
2005,09,05,12,54,770.30
2005,09,05,12,55,792.10
2005,09,05,12,56,796.00
2005,09,05,12,57,802.00
2005,09,05,12,58,798.00
2005,09,05,12,59,745.10
2005,09,05,13,00,704.70
2005,09,05,13,01,617.00
2005,09,05,13,02,635.30
2005,09,05,13,03,687.00
2005,09,05,13,04,687.00
2005,09,05,13,05,764.20
2005,09,05,13,06,796.30
2005,09,05,13,07,796.00
2005,09,05,13,08,794.60
2005,09,05,13,09,791.00
2005,09,05,13,10,793.30
2005,09,05,13,11,792.10
2005,09,05,13,12,791.00
2005,09,05,13,13,791.30
2005,09,05,13,14,793.00
2005,09,05,13,15,793.00
2005,09,05,13,16,793.00
2005,09,05,13,17,795.30
2005,09,05,13,18,797.50
2005,09,05,13,19,791.00
2005,09,05,13,20,791.00
2005,09,05,13,21,794.50
2005,09,05,13,22,798.00
2005,09,05,13,23,803.40
2005,09,05,13,24,807.00
2005,09,05,13,25,809.00
2005,09,05,13,26,803.30
2005,09,05,13,27,788.00
2005,09,05,13,28,773.70
2005,09,05,13,29,750.60
2005,09,05,13,30,743.40
2005,09,05,13,31,754.20
2005,09,05,13,32,792.50
2005,09,05,13,33,730.90
2005,09,05,13,34,717.20
2005,09,05,13,35,744.10
2005,09,05,13,36,731.80
2005,09,05,13,37,687.10
2005,09,05,13,38,575.50
2005,09,05,13,39,584.00
2005,09,05,13,40,584.00
2005,09,05,13,41,617.00
2005,09,05,13,42,634.30
2005,09,05,13,43,688.90
2005,09,05,13,44,611.60
2005,09,05,13,45,563.00
2005,09,05,13,46,563.00
2005,09,05,13,47,682.20
2005,09,05,13,48,705.30
2005,09,05,13,49,763.60
2005,09,05,13,50,792.60
2005,09,05,13,51,731.70
2005,09,05,13,52,707.00
2005,09,05,13,53,707.00
2005,09,05,13,54,788.80
2005,09,05,13,55,811.40
2005,09,05,13,56,802.10
2005,09,05,13,57,877.80
2005,09,05,13,58,896.00
2005,09,05,13,59,896.00
2005,09,05,14,00,896.00
2005,09,05,14,01,714.20
2005,09,05,14,02,396.00
2005,09,05,14,03,396.00
2005,09,05,14,04,396.00
2005,09,05,14,05,418.40
2005,09,05,14,06,880.60
2005,09,05,14,07,824.50
2005,09,05,14,08,773.00
2005,09,05,14,09,773.00
2005,09,05,14,10,773.00
2005,09,05,14,11,773.00
2005,09,05,14,12,766.30
2005,09,05,14,13,742.00
2005,09,05,14,14,742.00
2005,09,05,14,15,728.70
2005,09,05,14,16,660.00
2005,09,05,14,17,691.00
2005,09,05,14,18,596.50
2005,09,05,14,19,323.00
2005,09,05,14,20,323.00
2005,09,05,14,21,323.00
2005,09,05,14,22,519.70
2005,09,05,14,23,559.00
2005,09,05,14,24,639.30
2005,09,05,14,25,867.00
2005,09,05,14,26,867.00
2005,09,05,14,27,568.80
2005,09,05,14,28,446.00
2005,09,05,14,29,478.30
2005,09,05,14,30,669.60
2005,09,05,14,31,698.70
2005,09,05,14,32,701.20
2005,09,05,14,33,715.00
2005,09,05,14,34,622.80
2005,09,05,14,35,622.00
2005,09,05,14,36,698.00
2005,09,05,14,37,660.00
2005,09,05,14,38,615.00
2005,09,05,14,39,615.00
2005,09,05,14,40,792.10
2005,09,05,14,41,782.10
2005,09,05,14,42,686.30
2005,09,05,14,43,737.00
2005,09,05,14,44,713.90
2005,09,05,14,45,720.30
2005,09,05,14,46,744.40
2005,09,05,14,47,789.00
2005,09,05,14,48,789.00
2005,09,05,14,49,757.00
2005,09,05,14,50,755.30
2005,09,05,14,51,756.40
2005,09,05,14,52,734.30
2005,09,05,14,53,579.20
2005,09,05,14,54,621.30
2005,09,05,14,55,589.00
2005,09,05,14,56,589.00
2005,09,05,14,57,544.00
2005,09,05,14,58,476.70
2005,09,05,14,59,438.80
2005,09,05,15,00,368.20
2005,09,05,15,01,362.00
2005,09,05,15,02,362.00
2005,09,05,15,03,397.00
2005,09,05,15,04,466.00
2005,09,05,15,05,466.00
2005,09,05,15,06,466.00
2005,09,05,15,07,608.90
2005,09,05,15,08,728.00
2005,09,05,15,09,728.00
2005,09,05,15,10,728.00
2005,09,05,15,11,741.90
2005,09,05,15,12,779.00
2005,09,05,15,13,742.80
2005,09,05,15,14,733.20
2005,09,05,15,15,742.50
2005,09,05,15,16,652.00
2005,09,05,15,17,622.50
2005,09,05,15,18,629.00
2005,09,05,15,19,629.00
2005,09,05,15,20,629.00
2005,09,05,15,21,672.60
2005,09,05,15,22,676.30
2005,09,05,15,23,648.00
2005,09,05,15,24,588.00
2005,09,05,15,25,619.60
2005,09,05,15,26,647.00
2005,09,05,15,27,492.30
2005,09,05,15,28,411.00
2005,09,05,15,29,508.30
2005,09,05,15,30,721.50
2005,09,05,15,31,755.00
2005,09,05,15,32,763.00
2005,09,05,15,33,761.30
2005,09,05,15,34,737.50
2005,09,05,15,35,705.50
2005,09,05,15,36,684.10
2005,09,05,15,37,696.40
2005,09,05,15,38,734.50
2005,09,05,15,39,687.70
2005,09,05,15,40,650.50
2005,09,05,15,41,639.90
2005,09,05,15,42,581.10
2005,09,05,15,43,513.60
2005,09,05,15,44,564.00
2005,09,05,15,45,616.60
2005,09,05,15,46,696.50
2005,09,05,15,47,702.90
2005,09,05,15,48,701.60
2005,09,05,15,49,701.60
2005,09,05,15,50,701.00
2005,09,05,15,51,698.00
2005,09,05,15,52,698.00
2005,09,05,15,53,698.00
2005,09,05,15,54,681.60
2005,09,05,15,55,667.40
2005,09,05,15,56,662.90
2005,09,05,15,57,584.30
2005,09,05,15,58,563.30
2005,09,05,15,59,600.60
2005,09,05,16,00,605.40
2005,09,05,16,01,605.00
2005,09,05,16,02,605.00
2005,09,05,16,03,605.00
2005,09,05,16,04,605.00
2005,09,05,16,05,605.00
2005,09,05,16,06,524.40
2005,09,05,16,07,542.30
2005,09,05,16,08,586.00
2005,09,05,16,09,587.00
2005,09,05,16,10,522.50
2005,09,05,16,11,415.00
2005,09,05,16,12,415.00
2005,09,05,16,13,415.00
2005,09,05,16,14,561.30
2005,09,05,16,15,566.90
2005,09,05,16,16,561.50
2005,09,05,16,17,559.00
2005,09,05,16,18,559.00
2005,09,05,16,19,559.00
2005,09,05,16,20,557.30
2005,09,05,16,21,544.50
2005,09,05,16,22,540.90
2005,09,05,16,23,538.00
2005,09,05,16,24,538.00
2005,09,05,16,25,538.00
2005,09,05,16,26,530.50
2005,09,05,16,27,526.70
2005,09,05,16,28,524.30
2005,09,05,16,29,520.30
2005,09,05,16,30,517.60
2005,09,05,16,31,515.30
2005,09,05,16,32,512.50
2005,09,05,16,33,510.00
2005,09,05,16,34,507.40
2005,09,05,16,35,503.40
2005,09,05,16,36,503.00
2005,09,05,16,37,497.00
2005,09,05,16,38,496.00
2005,09,05,16,39,496.00
2005,09,05,16,40,492.80
2005,09,05,16,41,486.50
2005,09,05,16,42,481.20
2005,09,05,16,43,479.80
2005,09,05,16,44,475.80
2005,09,05,16,45,475.00
2005,09,05,16,46,475.00
2005,09,05,16,47,471.20
2005,09,05,16,48,468.20
2005,09,05,16,49,467.50
2005,09,05,16,50,461.30
2005,09,05,16,51,458.20
2005,09,05,16,52,455.40
2005,09,05,16,53,454.00
2005,09,05,16,54,454.00
2005,09,05,16,55,448.00
2005,09,05,16,56,444.50
2005,09,05,16,57,442.20
2005,09,05,16,58,439.90
2005,09,05,16,59,438.30
2005,09,05,17,00,434.70
2005,09,05,17,01,430.70
2005,09,05,17,02,428.50
2005,09,05,17,03,426.20
2005,09,05,17,04,423.30
2005,09,05,17,05,420.60
2005,09,05,17,06,418.30
2005,09,05,17,07,414.50
2005,09,05,17,08,410.70
2005,09,05,17,09,408.40
2005,09,05,17,10,404.90
2005,09,05,17,11,401.80
2005,09,05,17,12,399.30
2005,09,05,17,13,396.90